Location: *
(46.0770°N, 1.6444°E)
Time: 11:29:00
(UTC+00:00)

CZ-2C R/B - Pass Details

Date: 16 September 2019
Orbit: 639 x 705 km, 98.4° (Epoch: 18 October)

Event Time Altitude Azimuth Distance (km) Brightness Sun altitude
Rises 18:52:17 0° 20° (NNE) 2,987 7.0 -9.2°
Reaches altitude 10° 18:54:39 10° 28° (NNE) 2,062 6.1 -9.6°
Maximum altitude 18:58:52 40° 98° (E) 954 4.0 -10.3°
Drops below altitude 10° 19:03:01 10° 169° (SSE) 2,028 5.9 -11.0°
Sets 19:05:19 0° 176° (S) 2,930 6.8 -11.4°
